Date String (YYYY-MM-DD hh:mm:ss) UTC,Instrument flags,Ambient pressure (hPa),Sample flow (lpm),Bypass flow (lpm),Sample temperature (°C),Ambient temperature (°C),ASC tube jacket temperature (°C),LED temperature (°C),Box temperature (°C),Sample RH (%),Span deviation,Mass concentration (μg/m³),Mass concentration (μg/m³),Mass concentration (μg/m³)
DateTimeUTC,F1_M11,P_M11,Q1_M11,Q2_M11,T1_M11,T2_M11,T3_M11,T4_M11,T5_M11,U1_M11,ZSPAN_M11,X0_M11,X2_M11,X1_M11
2022-09-10 08:00:00,,0830.5,4.99,0.00,29.3,27.7,00.0,38.0,31.1,25.9,0000.0,0001.13,0001.01,0000.99
2022-09-10 08:01:00,,0830.5,5.00,0.00,29.3,27.7,00.0,38.0,31.1,25.9,0000.0,0001.14,0001.01,0000.99
2022-09-10 08:02:00,,0830.5,5.01,0.00,29.3,27.7,00.0,38.0,31.1,25.9,0000.0,0001.15,0001.01,0000.99
2022-09-10 08:03:00,,0830.5,5.00,0.00,29.3,27.7,00.0,38.0,31.1,25.9,0000.0,0001.15,0001.01,0000.98
2022-09-10 08:04:00,,0830.4,5.00,0.00,29.3,27.6,00.0,38.0,31.1,25.9,0000.0,0001.13,0001.00,0000.97
2022-09-10 08:05:00,,0830.4,5.00,0.00,29.3,27.6,00.0,38.0,31.1,25.8,0000.0,0001.13,0000.99,0000.96
2022-09-10 08:06:00,,0830.4,5.00,0.00,29.3,27.6,00.0,38.0,31.1,25.8,0000.0,0001.18,0001.00,0000.95
2022-09-10 08:07:00,,0830.4,5.00,0.00,29.3,27.6,00.0,38.0,31.1,25.8,0000.0,0001.18,0000.99,0000.94
2022-09-10 08:08:00,,0830.5,5.00,0.00,29.3,27.6,00.0,38.0,31.1,25.8,0000.0,0001.21,0001.01,0000.94
2022-09-10 08:09:00,,0830.5,4.99,0.00,29.2,27.6,00.0,38.0,31.1,25.8,0000.0,0001.20,0001.00,0000.93
2022-09-10 08:10:00,,0830.5,5.00,0.00,29.3,27.6,00.0,38.0,31.1,25.8,0000.0,0001.16,0000.98,0000.92
2022-09-10 08:11:00,,0830.6,5.00,0.00,29.3,27.6,00.0,38.0,31.1,25.8,0000.0,0001.18,0000.98,0000.91
2022-09-10 08:12:00,,0830.6,5.00,0.00,29.2,27.6,00.0,38.0,31.1,25.9,0000.0,0001.20,0000.99,0000.91
2022-09-10 08:13:00,,0830.5,5.00,0.00,29.2,27.6,00.0,38.0,31.1,25.9,0000.0,0001.20,0000.98,0000.91
2022-09-10 08:14:00,,0830.6,5.01,0.00,29.2,27.6,00.0,38.0,31.1,25.8,0000.0,0001.95,0000.99,0000.92
2022-09-10 08:15:00,,0830.6,4.98,0.00,29.2,27.6,00.0,38.0,31.1,25.8,0000.0,0001.98,0001.00,0000.92
2022-09-10 08:16:00,,0830.6,5.00,0.00,29.2,27.6,00.0,38.0,31.1,25.8,0000.0,0001.98,0001.00,0000.93
2022-09-10 08:17:00,,0830.6,5.01,0.00,29.2,27.6,00.0,38.0,31.0,25.8,0000.0,0001.95,0001.01,0000.95
2022-09-10 08:18:00,,0830.6,5.01,0.00,29.2,27.6,00.0,38.0,31.0,25.9,0000.0,0002.01,0001.03,0000.96
2022-09-10 08:19:00,,0830.6,5.00,0.00,29.2,27.6,00.0,38.0,31.1,25.8,0000.0,0002.01,0001.03,0000.96
2022-09-10 08:20:00,,0830.6,5.00,0.00,29.2,27.6,00.0,38.0,31.1,25.9,0000.0,0002.02,0001.04,0000.97
2022-09-10 08:21:00,,0830.6,5.01,0.00,29.2,27.6,00.0,38.0,31.0,25.9,0000.0,0002.03,0001.04,0000.97
2022-09-10 08:22:00,,0830.5,5.00,0.00,29.2,27.6,00.0,38.0,31.0,25.9,0000.0,0002.00,0001.04,0000.97
2022-09-10 08:23:00,,0830.6,4.99,0.00,29.2,27.6,00.0,38.0,31.0,25.9,0000.0,0002.03,0001.05,0000.97
2022-09-10 08:24:00,,0830.5,5.01,0.00,29.2,27.5,00.0,38.0,31.0,25.9,0000.0,0002.10,0001.07,0000.97
2022-09-10 08:25:00,,0830.6,5.00,0.00,29.2,27.5,00.0,38.0,31.0,25.9,0000.0,0001.43,0001.08,0000.98
2022-09-10 08:26:00,,0830.6,5.00,0.00,29.2,27.5,00.0,38.0,31.0,25.9,0000.0,0001.38,0001.09,0000.99
2022-09-10 08:27:00,,0830.6,5.00,0.00,29.2,27.5,00.0,38.0,31.0,25.9,0000.0,0001.40,0001.11,0001.00
2022-09-10 08:28:00,,0830.6,5.00,0.00,29.2,27.5,00.0,38.0,31.0,26.0,0000.0,0001.41,0001.11,0000.99
2022-09-10 08:29:00,,0830.6,5.00,0.00,29.2,27.5,00.0,38.0,31.0,25.9,0000.0,0001.37,0001.09,0001.00
2022-09-10 08:30:00,,0830.6,5.01,0.00,29.2,27.5,00.0,38.0,31.0,25.9,0000.0,0001.32,0001.07,0001.00
2022-09-10 08:31:00,,0830.6,5.00,0.00,29.2,27.5,00.0,38.0,31.0,26.3,0000.0,0001.33,0001.08,0001.00
2022-09-10 08:32:00,,0830.6,5.00,0.00,29.2,27.4,00.0,37.9,31.0,27.1,0000.0,0001.32,0001.07,0001.00
2022-09-10 08:33:00,,0830.6,5.00,0.00,29.1,27.4,00.0,37.9,30.9,26.3,0000.0,0001.31,0001.06,0000.99
2022-09-10 08:34:00,,0830.6,5.00,0.00,29.1,27.5,00.0,37.9,30.9,26.0,0000.0,0001.27,0001.05,0000.99
2022-09-10 08:35:00,,0830.6,5.00,0.00,29.1,27.4,00.0,37.9,30.9,25.9,0000.0,0001.21,0001.03,0000.99
2022-09-10 08:36:00,,0830.6,5.00,0.00,29.1,27.4,00.0,37.9,30.9,25.9,0000.0,0001.22,0001.03,0000.99
2022-09-10 08:37:00,,0830.6,5.00,0.00,29.1,27.4,00.0,37.9,30.9,25.9,0000.0,0001.24,0001.05,0001.00
2022-09-10 08:38:00,,0830.6,5.00,0.00,29.1,27.4,00.0,37.9,30.9,25.9,0000.0,0003.57,0001.08,0001.02
2022-09-10 08:39:00,,0830.6,4.99,0.00,29.1,27.4,00.0,37.9,30.9,25.9,0000.0,0004.77,0001.10,0001.04
2022-09-10 08:40:00,,0830.6,5.00,0.00,29.1,27.4,00.0,37.9,30.9,25.9,0000.0,0004.81,0001.13,0001.06
2022-09-10 08:41:00,,0830.6,5.00,0.00,29.1,27.5,00.0,37.9,30.9,25.9,0000.0,0004.84,0001.16,0001.09
2022-09-10 08:42:00,,0830.6,5.00,0.00,29.1,27.5,00.0,37.9,30.9,25.9,0000.0,0004.86,0001.19,0001.12
2022-09-10 08:43:00,,0830.6,5.00,0.00,29.1,27.4,00.0,37.9,30.9,25.9,0000.0,0004.91,0001.22,0001.14
2022-09-10 08:44:00,,0830.6,4.99,0.00,29.1,27.4,00.0,37.9,30.9,25.9,0000.0,0004.95,0001.25,0001.17
2022-09-10 08:45:00,,0830.6,5.00,0.00,29.1,27.4,00.0,37.9,30.9,25.9,0000.0,0004.97,0001.28,0001.20
2022-09-10 08:46:00,,0830.6,5.00,0.00,29.1,27.4,00.0,37.9,30.9,25.9,0000.0,0005.01,0001.31,0001.23
2022-09-10 08:47:00,,0830.6,4.99,0.00,29.1,27.4,00.0,37.9,30.9,25.9,0000.0,0005.02,0001.32,0001.24
2022-09-10 08:48:00,,0830.6,5.00,0.00,29.1,27.4,00.0,37.9,30.9,25.9,0000.0,0005.01,0001.32,0001.25
2022-09-10 08:49:00,,0830.6,5.00,0.00,29.1,27.5,00.0,37.9,30.9,25.9,0000.0,0003.18,0001.30,0001.24
2022-09-10 08:50:00,,0830.6,5.00,0.00,29.1,27.4,00.0,37.9,30.9,25.9,0000.0,0001.47,0001.28,0001.23
2022-09-10 08:51:00,,0830.6,5.00,0.00,29.1,27.4,00.0,37.9,30.9,25.9,0000.0,0001.44,0001.25,0001.21
2022-09-10 08:52:00,,0830.6,5.00,0.00,29.1,27.4,00.0,37.9,30.9,25.9,0000.0,0001.41,0001.23,0001.19
2022-09-10 08:53:00,,0830.6,5.00,0.00,29.1,27.4,00.0,37.9,30.9,25.9,0000.0,0001.41,0001.22,0001.18
2022-09-10 08:54:00,,0830.6,5.00,0.00,29.1,27.4,00.0,37.8,30.9,25.9,0000.0,0001.40,0001.22,0001.17
2022-09-10 08:55:00,,0830.6,5.00,0.00,29.1,27.5,00.0,37.8,30.9,25.9,0000.0,0001.38,0001.20,0001.16
2022-09-10 08:56:00,,0830.6,5.00,0.00,29.1,27.5,00.0,37.8,30.9,25.9,0000.0,0001.40,0001.21,0001.16
2022-09-10 08:57:00,,0830.6,5.00,0.00,29.1,27.5,00.0,37.8,30.9,25.9,0000.0,0001.39,0001.21,0001.16
2022-09-10 08:58:00,,0830.7,5.00,0.00,29.1,27.5,00.0,37.8,30.9,26.0,0000.0,0001.37,0001.20,0001.16
2022-09-10 08:59:00,,0830.6,5.00,0.00,29.1,27.5,00.0,37.8,30.9,26.0,0000.0,0001.38,0001.20,0001.17
